SCP
-0 0 0 0 0 0 0 0 0 0 0 -0 0 0 0 0 0 0 0 0 -0 0 0 -0 -0 0 0 0 0 0 0 0 0 0 0 0 0 0 0 0 -0 -0 0 0 0 0 0 0 0
-0 0 0 0 0 0 0 0 0 0 0 -0 0 0 0 0 0 0 -0 -0 0 0 0 0 0 -0 0 0 0 0 0 0 0 0 0 0 0 0 0 0 -0 -0 0 0 0 0 0 0 0
0 0 -0 -0 -0 0 0 0 0 0 0 0 0 0 0 0 0 0 0 0 0 0 0 -0 0 -0 -0 0 0 0 0 0 0 0 0 0 0 0 0 0 0 -0 0 0 0 0 0 0 0
0 0 -0 -0 -0 -0 -0 -0 0 0 0 0 0 0 0 0 -0 0 0 0 0 0 0 0 0 0 -0 -0 0 0 0 0 0 0 0 0 0 0 0 0 0 0 0 0 0 0 0 0 0
0 0 -0 0 0 0 -0 -0 -0 -0 -0 0 0 0 0 0 0 0 0 0 0 0 0 0 0 0 -0 -0 -0 0 0 0 0 0 0 0 0 0 0 0 0 0 0 0 0 0 0 0 0
0 0 -0 -0 -0 -0 0 0 -0 -0 -0 0 0 0 0 0 0 0 0 0 0 0 0 0 0 0 0 0 0 -0 0 0 0 0 0 0 0 0 0 0 0 -0 0 0 0 0 0 0 0
0 -0 -0 -0 -0 -0 -0 -0 -0 0 0 0 0 0 0 0 0 0 0 0 0 0 0 0 0 0 0 0 0 0 -0 0 0 0 0 0 0 0 0 0 0 -0 0 0 0 0 0 0 0
0 -0 0 0 -0 0 -0 0 0 0 0 0 0 0 0 0 0 0 0 0 0 0 0 0 0 0 0 0 0 0 0 0 0 0 0 0 0 0 0 0 0 -0 0 0 0 0 0 0 0
0 -0 0 -0 0 0 0 0 0 0 -0 0 -0 -0 -0 0 0 0 0 0 0 0 0 0 0 0 0 0 0 0 0 0 0 0 0 0 0 0 0 0 0 0 0 0 0 0 0 0 0
-0 0 0 0 0 0 0 0 0 0 0 0 0 0 0 0 0 0 0 0 0 0 0 0 0 0 0 0 0 0 0 0 0 0 0 0 0 0 0 0 0 0 0 0 0 0 0 0 0
-0 0 0 0 0 0 0 0 0 0 0 0 0 0 0 0 0 0 0 0 0 0 0 0 0 0 0 0 0 0 0 0 0 0 0 0 0 0 0 0 0 0 0 0 0 0 0 0 0
0 0 0 0 0 0 0 0 0 0 0 0 0 0 0 0 0 0 0 0 0 0 0 0 0 0 0 0 0 0 0 0 0 0 0 0 0 0 0 0 0 0 0 0 0 0 0 0 0
0 0 0 0 0 0 0 0 0 0 0 0 0 0 0 0 0 0 0 0 0 0 0 0 0 0 0 0 0 0 0 0 0 0 0 0 0 0 0 0 0 0 0 0 0 0 0 0 0
0 -0 -0 -0 -0 -0 -0 0 0 0 0 0 0 0 0 0 0 0 0 0 0 0 0 0 0 0 0 0 0 0 0 0 0 0 0 0 0 0 0 0 0 0 0 0 0 0 0 0 0
-0 -0 -0 -0 0 0 0 0 0 0 0 0 0 0 0 0 0 0 0 0 0 0 0 0 0 -0 0 0 0 0 0 0 0 0 0 0 0 0 0 0 0 0 0 0 0 0 0 0 0
0 0 0 0 0 0 0 0 0 0 0 0 0 0 0 0 0 0 0 0 0 0 0 0 0 0 0 0 0 0 0 0 0 0 0 0 0 0 0 0 0 0 0 0 0 0 0 0 0
0 0 0 0 0 0 0 0 0 0 0 0 0 0 0 0 0 0 0 0 0 0 0 0 0 0 0 0 0 0 0 0 0 0 0 0 0 0 0 0 0 0 0 0 0 0 0 0 0
0 0 0 0 0 0 0 0 0 0 0 0 0 0 0 0 0 0 0 0 0 0 0 0 0 0 0 0 0 0 0 0 0 0 0 0 0 0 0 0 0 0 0 0 0 0 0 0 0
0 0 0 0 0 0 0 0 0 0 0 0 0 0 0 0 0 0 0 0 0 0 0 0 0 0 0 0 0 0 0 0 0 0 0 0 0 0 0 0 0 0 0 0 0 0 0 0 0
0 0 0 0 0 0 0 0 0 0 0 0 0 0 0 0 0 0 0 0 0 0 0 0 0 0 0 0 0 0 0 0 0 0 0 0 0 0 0 0 0 0 0 0 0 0 0 0 0
0 0 0 0 0 0 0 0 0 0 0 0 0 0 0 0 0 0 0 0 0 0 0 0 0 0 0 0 0 0 0 0 0 0 0 0 0 0 0 0 0 0 0 0 0 0 0 0 0
0 0 0 0 0 0 0 0 0 0 0 0 0 0 0 0 0 0 0 0 0 0 0 0 0 0 0 0 0 0 -0 0 0 0 0 0 0 0 0 0 0 0 0 0 0 0 0 0 0
0 0 0 0 0 0 0 0 0 0 0 0 0 0 0 0 0 0 0 0 0 0 0 0 0 0 0 0 0 0 -0 0 0 0 0 0 0 0 0 0 0 0 0 0 0 0 0 0 0
0 0 0 0 0 0 0 0 0 0 0 0 0 0 0 0 0 0 0 0 0 0 0 0 0 0 0 0 0 0 -0 -0 -0 0 0 0 0 0 0 0 0 0 0 0 0 0 0 0 0
0 0 0 0 0 0 0 0 0 0 0 0 0 0 0 0 0 0 0 0 0 0 0 0 0 0 0 0 0 0 -0 -0 -0 -0 0 0 0 0 0 0 0 0 0 0 0 0 0 0 0
0 0 0 0 0 0 0 0 0 0 0 0 0 0 0 0 0 0 0 0 0 0 0 0 0 0 0 0 0 0 0 0 -0 -0 -0 -0 0 0 0 0 0 0 0 0 0 0 0 0 0
0 0 0 0 0 0 0 0 0 0 0 0 0 0 0 0 0 0 0 0 0 0 0 0 0 0 0 0 0 0 0 -0 -0 -0 -0 -0 -0 0 0 0 0 0 0 0 0 0 0 0 0
0 0 0 0 0 0 0 0 0 0 0 0 0 0 0 0 0 0 0 0 0 0 0 0 0 0 -0 0 0 0 0 0 0 0 0 -0 0 -0 0 0 0 0 0 0 0 0 0 0 0
0 0 0 0 0 0 0 0 0 0 0 0 0 0 0 0 0 0 0 0 0 0 0 0 0 0 -0 -0 -0 -0 -0 -0 0 0 -0 0 -0 0 0 0 0 -0 0 0 0 0 0 0 0
0 0 0 0 0 0 0 0 0 0 0 0 0 0 0 0 0 0 0 0 0 0 0 0 0 0 0 0 0 -0 -0 -0 -0 -0 -0 -0 -0 -0 -0 -0 -0 -0 0 0 0 0 0 0 0
Wind_Speed_500mb
2 8 8 6 9 11 6 6 7 11 6 13 28 24 20 33 10 5 44 52 55 39 8 8 10 12 14 17 17 18 19 14 12 16 19 19 21 19 14 6 6 9 14 8 12 17 16 26 26
8 11 8 8 10 8 3 7 8 9 10 5 10 10 21 8 48 14 55 55 52 44 8 7 12 17 22 19 19 19 19 18 15 16 22 23 23 26 18 13 4 4 11 14 4 15 18 24 23
15 11 9 8 8 7 4 11 12 10 26 7 7 23 13 27 34 36 47 49 48 39 10 15 19 22 24 23 22 23 23 18 19 20 23 27 28 34 28 19 10 4 14 11 4 14 19 21 22
15 11 17 11 13 11 6 12 22 16 14 27 10 14 17 37 30 43 44 46 43 40 20 7 23 21 22 27 25 27 27 28 30 27 26 30 34 26 34 21 11 7 14 10 9 16 21 22 22
18 14 11 11 10 7 5 10 19 11 7 21 14 7 10 41 37 40 44 44 43 38 32 24 29 29 30 23 26 30 31 31 32 35 32 26 28 39 32 22 11 9 17 14 14 14 24 23 22
11 10 10 7 6 2 1 15 19 10 28 16 15 7 8 33 45 51 47 42 38 39 31 33 33 31 34 34 31 32 33 32 35 35 35 29 27 35 33 24 11 12 15 17 15 15 24 26 25
15 9 12 13 14 4 5 3 8 18 16 21 11 6 6 41 49 49 45 39 35 33 34 30 32 33 36 33 37 35 37 34 36 37 37 38 37 38 38 28 15 5 16 19 13 15 26 26 26
12 11 8 2 9 5 1 8 15 13 14 13 9 9 10 45 48 46 39 38 38 36 36 36 34 35 34 38 39 39 38 37 36 40 39 42 45 42 38 36 28 12 17 21 17 12 27 28 27
8 10 7 12 12 10 7 6 5 15 25 28 13 13 19 35 43 46 49 46 45 45 45 42 40 37 39 38 43 39 37 41 39 41 44 42 48 47 45 42 38 21 19 25 19 16 23 27 28
15 9 8 6 11 8 10 11 15 9 13 13 11 13 24 37 50 60 65 65 61 56 54 54 49 46 42 43 46 47 44 46 47 45 47 47 47 48 49 46 43 31 27 29 24 21 24 29 30
10 8 10 5 30 32 18 12 7 24 9 6 8 21 34 44 52 58 61 63 69 64 56 55 56 53 51 48 46 50 49 48 50 57 51 53 48 51 53 47 37 33 35 37 36 31 30 32 32
14 9 7 16 16 10 9 12 13 10 10 11 12 22 34 47 54 62 67 69 72 69 67 62 60 62 57 56 52 49 55 53 58 58 60 60 56 57 54 60 51 47 46 45 42 40 35 36 37
14 9 15 17 18 13 17 13 15 20 17 10 12 27 41 49 55 60 64 67 70 74 75 70 68 68 70 63 58 55 55 62 62 60 61 65 67 66 66 62 55 51 47 45 40 36 36 38 39
14 25 19 13 15 20 16 10 7 11 8 7 20 33 41 49 57 64 70 79 80 79 78 78 77 71 67 70 66 60 59 61 66 66 64 49 72 74 72 67 60 55 51 45 40 36 34 35 40
24 12 9 10 3 5 14 5 7 12 5 13 25 32 40 49 57 64 72 78 83 87 84 81 81 79 77 72 68 66 61 60 67 71 70 70 59 77 78 76 69 61 56 49 46 41 40 38 40
10 9 7 6 2 2 8 6 4 5 2 17 27 34 43 51 59 66 73 81 87 86 87 84 78 76 73 66 62 64 61 59 61 70 75 68 63 69 79 79 77 66 62 58 53 49 45 42 41
11 6 5 2 3 1 4 2 4 6 8 19 28 37 47 56 64 69 75 82 86 86 83 78 70 69 67 64 58 53 58 56 58 62 71 75 70 60 84 82 78 73 67 67 60 55 52 48 43
11 8 3 6 4 3 3 4 6 7 12 18 28 39 49 59 68 70 77 83 85 84 80 74 70 69 69 63 57 56 54 59 50 55 62 71 70 58 71 80 80 76 78 75 72 64 57 52 46
14 10 8 2 2 1 6 5 12 8 10 18 31 41 50 59 62 66 76 85 89 84 78 76 71 73 69 65 62 58 49 48 43 43 47 59 69 54 60 86 78 78 86 89 76 66 59 58 52
10 9 3 3 5 2 4 10 9 12 3 14 25 35 46 59 66 70 77 86 86 82 76 74 68 70 72 67 58 54 45 41 38 36 32 41 57 55 52 55 79 82 80 88 83 73 59 62 59
6 10 7 3 4 4 7 9 9 6 7 8 20 29 41 49 60 69 71 81 84 83 79 74 65 64 67 58 50 36 29 30 29 12 5 14 33 44 48 60 58 85 65 68 71 70 65 63 71
7 5 10 8 6 5 5 9 10 10 9 0 18 31 43 51 55 61 63 73 79 78 74 68 62 56 53 52 43 36 25 16 23 16 10 4 16 26 34 43 46 35 46 88 65 65 76 62 76
6 4 8 6 8 6 0 5 7 4 9 5 12 26 35 41 45 53 57 58 73 73 78 72 62 58 60 54 48 43 41 50 34 19 15 12 5 6 18 22 34 10 15 47 58 47 63 64 63
16 9 10 8 5 3 5 9 8 9 11 7 5 20 29 38 42 49 49 50 65 78 78 85 79 83 77 67 65 62 60 44 38 34 25 17 20 11 2 18 9 9 9 17 25 17 8 22 50
5 8 4 9 5 9 8 4 12 11 9 9 9 11 21 31 40 43 47 51 61 68 84 93 93 91 96 99 93 94 96 91 89 77 67 61 50 39 32 21 20 4 14 13 21 12 5 6 11
9 4 8 13 6 5 4 11 7 8 18 15 11 10 17 26 35 35 43 49 47 57 67 75 81 89 96 95 94 93 89 90 90 87 85 88 86 81 70 62 53 49 36 25 15 19 19 15 13
9 8 4 12 5 6 6 9 4 8 8 14 12 10 14 22 30 34 40 52 51 57 68 77 86 91 94 92 87 85 83 81 81 78 81 84 79 77 72 70 71 61 53 50 48 39 36 33 38
5 7 6 4 4 8 8 10 9 21 20 14 16 18 17 19 23 30 34 41 45 50 55 60 64 68 72 74 74 77 77 77 77 77 75 70 65 58 59 65 66 52 44 46 46 41 37 34 37
6 5 4 3 7 8 3 10 5 27 26 26 33 29 25 23 24 26 28 32 35 39 46 52 56 60 65 69 66 65 66 65 63 64 62 57 52 50 44 39 34 33 35 38 36 35 33 31 29
5 12 12 7 10 6 3 11 8 15 33 45 44 37 31 26 25 23 23 24 23 28 35 42 45 50 56 59 61 60 60 59 57 57 54 51 49 46 44 40 37 36 34 31 31 28 24 19 20
Wind_Direction_500mb
163 99 108 78 56 65 55 40 299 353 49 77 70 65 89 62 17 27 339 339 345 343 216 258 283 276 273 285 263 242 232 229 232 209 204 208 209 210 193 163 346 30 26 63 146 161 160 159 176
127 119 90 80 82 68 357 321 356 325 328 91 56 54 50 58 14 344 350 348 349 353 309 299 273 281 276 277 275 252 232 233 239 233 216 215 216 208 203 176 168 342 11 8 162 159 159 165 174
117 108 60 74 62 76 105 1 320 3 40 5 71 54 48 347 3 350 347 341 347 347 16 271 334 280 266 265 266 259 251 244 243 242 238 232 231 228 213 192 179 297 327 326 303 183 168 166 171
122 71 66 68 76 11 51 333 354 358 35 30 41 65 95 26 10 354 346 343 342 348 350 294 273 274 261 273 263 265 260 257 253 249 244 249 239 225 204 197 197 270 305 309 280 200 185 178 180
93 78 66 88 61 117 33 49 35 38 36 11 50 84 86 10 1 356 352 345 345 345 332 308 290 264 251 262 268 264 268 271 266 253 246 245 252 213 204 207 211 273 298 292 257 225 193 187 188
75 89 69 93 105 79 329 33 45 63 39 34 51 92 91 358 360 1 353 348 341 337 331 318 314 288 259 251 261 263 262 272 276 265 245 230 228 212 213 216 222 298 294 297 259 227 199 195 196
102 71 139 140 157 168 226 108 68 51 33 30 40 59 305 355 356 350 348 351 349 339 325 314 312 296 293 282 250 252 263 268 273 267 254 234 224 223 219 218 223 281 311 310 270 235 207 201 201
93 92 100 134 182 173 215 109 86 69 39 70 46 27 341 348 344 343 342 345 350 352 345 329 310 304 288 282 275 257 249 257 266 266 255 242 232 224 222 224 235 251 283 299 288 251 210 211 212
68 68 134 170 151 159 172 116 82 82 87 75 83 58 0 342 341 346 350 349 345 344 344 338 329 314 295 287 272 276 264 251 251 255 256 248 235 230 228 227 239 239 265 283 288 260 226 225 224
60 84 162 166 151 140 129 131 136 103 87 66 63 26 354 350 354 356 355 350 346 340 336 334 328 318 308 289 279 270 268 264 244 245 249 252 243 231 231 237 240 233 242 256 270 269 244 232 230
42 125 163 113 118 103 97 98 111 122 57 73 36 4 356 357 358 355 352 348 343 339 334 330 326 321 309 298 286 273 264 260 254 252 242 246 244 231 228 237 238 236 239 249 260 262 257 246 239
94 90 96 140 160 118 123 105 83 89 113 94 53 8 358 359 360 357 350 346 341 337 333 330 326 325 313 301 288 279 268 256 249 251 242 239 241 232 225 233 243 243 247 253 256 256 252 248 244
78 129 97 132 148 132 127 103 119 106 118 93 32 8 4 359 355 351 347 343 338 335 333 327 322 318 317 306 291 279 268 261 255 246 244 237 236 236 233 237 239 244 244 246 247 245 249 249 244
109 108 111 109 111 128 120 137 121 151 128 67 15 11 5 359 356 350 349 345 343 337 332 329 324 319 315 309 299 282 271 264 255 253 237 248 235 235 237 238 241 241 242 239 236 243 252 252 246
104 76 47 33 74 120 138 88 90 144 133 30 18 8 1 1 359 356 352 348 344 340 335 331 324 320 315 304 299 289 275 266 259 250 246 233 241 235 234 238 241 241 239 237 236 242 247 245 242
69 59 99 301 40 72 134 240 120 123 165 30 13 5 358 1 0 357 356 351 347 341 339 336 333 331 324 313 297 291 288 273 262 256 245 242 233 238 236 234 238 241 239 238 238 242 247 247 245
16 165 138 247 9 299 131 215 124 88 65 32 11 3 1 359 359 359 358 353 346 348 347 345 345 340 336 330 319 300 295 287 271 259 250 238 231 243 238 234 236 238 237 235 238 241 245 246 246
189 158 146 171 203 146 194 174 144 99 55 29 11 5 3 2 3 3 1 353 351 354 352 351 346 341 334 327 318 305 298 299 280 266 252 243 236 230 250 236 236 237 239 237 235 236 241 246 247
123 114 124 80 25 33 235 221 197 158 48 23 15 7 4 3 4 6 2 357 358 2 355 354 348 343 340 337 330 322 300 304 302 276 254 245 236 238 242 236 238 239 239 239 233 233 240 241 244
94 108 108 43 35 74 338 268 181 185 101 33 12 8 7 3 4 8 6 5 4 359 357 354 352 351 343 340 334 323 311 302 305 292 255 251 235 235 249 257 248 245 246 243 235 228 236 242 241
49 130 164 138 343 68 351 279 177 196 155 38 21 16 16 14 11 11 7 10 8 5 3 1 355 356 346 352 346 343 338 326 328 344 12 268 246 244 259 263 266 253 254 244 244 239 231 240 245
146 141 120 109 82 217 48 278 219 207 213 172 10 21 18 12 17 14 7 18 18 12 13 11 12 12 12 11 9 15 5 21 26 33 110 273 255 247 258 274 272 262 269 256 255 255 250 239 248
159 137 109 105 96 55 62 81 261 119 226 235 359 23 23 19 20 19 11 21 32 27 30 30 30 26 35 44 47 57 65 75 69 72 74 84 149 249 278 288 248 327 295 232 233 245 237 248 253
144 82 51 56 91 15 182 136 265 186 192 161 39 33 26 24 25 27 21 29 38 43 46 47 52 50 50 50 53 58 57 63 67 72 78 66 61 100 15 102 178 119 116 47 77 48 326 279 250
87 105 339 348 14 224 152 88 254 181 168 143 126 63 43 35 34 37 33 34 42 45 50 49 58 57 60 63 66 67 71 70 72 69 71 72 69 74 91 88 87 68 318 303 31 36 38 306 270
179 176 167 211 205 269 150 235 270 159 143 138 120 94 68 54 48 52 42 41 38 44 52 57 56 53 55 60 61 65 64 68 69 70 71 69 69 65 63 67 70 74 77 75 51 9 18 31 42
182 196 137 105 39 46 225 277 170 139 154 170 161 137 101 76 64 64 58 54 54 58 61 62 62 61 59 56 54 56 56 57 62 64 66 70 66 62 58 54 55 52 50 56 60 60 58 52 53
151 155 84 7 159 257 264 268 230 196 199 194 192 178 147 107 91 80 70 66 64 63 61 57 54 54 55 54 54 57 61 63 63 61 59 56 56 54 59 61 61 47 46 52 57 56 56 56 59
147 193 179 153 177 178 250 256 205 193 183 185 193 181 162 136 112 98 83 75 69 68 63 60 55 53 52 52 53 52 52 52 52 53 53 54 58 61 64 67 71 68 57 56 50 48 49 46 53
190 191 170 147 210 228 153 270 333 176 172 180 183 178 169 155 143 127 106 91 78 68 65 57 51 49 48 45 45 47 46 47 44 45 47 47 48 50 50 52 52 52 53 50 53 55 56 51 59
Wind_Speed_850mb
2 8 8 6 9 11 6 6 7 11 6 13 28 24 20 33 10 5 44 52 55 39 8 8 10 12 14 17 17 18 19 14 12 16 19 19 21 19 14 6 6 9 14 8 12 17 16 26 26
8 11 8 8 10 8 3 7 8 9 10 5 10 10 21 8 48 14 55 55 52 44 8 7 12 17 22 19 19 19 19 18 15 16 22 23 23 26 18 13 4 4 11 14 4 15 18 24 23
15 11 9 8 8 7 4 11 12 10 26 7 7 23 13 27 34 36 47 49 48 39 10 15 19 22 24 23 22 23 23 18 19 20 23 27 28 34 28 19 10 4 14 11 4 14 19 21 22
15 11 17 11 13 11 6 12 22 16 14 27 10 14 17 37 30 43 44 46 43 40 20 7 23 21 22 27 25 27 27 28 30 27 26 30 34 26 34 21 11 7 14 10 9 16 21 22 22
18 14 11 11 10 7 5 10 19 11 7 21 14 7 10 41 37 40 44 44 43 38 32 24 29 29 30 23 26 30 31 31 32 35 32 26 28 39 32 22 11 9 17 14 14 14 24 23 22
11 10 10 7 6 2 1 15 19 10 28 16 15 7 8 33 45 51 47 42 38 39 31 33 33 31 34 34 31 32 33 32 35 35 35 29 27 35 33 24 11 12 15 17 15 15 24 26 25
15 9 12 13 14 4 5 3 8 18 16 21 11 6 6 41 49 49 45 39 35 33 34 30 32 33 36 33 37 35 37 34 36 37 37 38 37 38 38 28 15 5 16 19 13 15 26 26 26
12 11 8 2 9 5 1 8 15 13 14 13 9 9 10 45 48 46 39 38 38 36 36 36 34 35 34 38 39 39 38 37 36 40 39 42 45 42 38 36 28 12 17 21 17 12 27 28 27
8 10 7 12 12 10 7 6 5 15 25 28 13 13 19 35 43 46 49 46 45 45 45 42 40 37 39 38 43 39 37 41 39 41 44 42 48 47 45 42 38 21 19 25 19 16 23 27 28
15 9 8 6 11 8 10 11 15 9 13 13 11 13 24 37 50 60 65 65 61 56 54 54 49 46 42 43 46 47 44 46 47 45 47 47 47 48 49 46 43 31 27 29 24 21 24 29 30
10 8 10 5 30 32 18 12 7 24 9 6 8 21 34 44 52 58 61 63 69 64 56 55 56 53 51 48 46 50 49 48 50 57 51 53 48 51 53 47 37 33 35 37 36 31 30 32 32
14 9 7 16 16 10 9 12 13 10 10 11 12 22 34 47 54 62 67 69 72 69 67 62 60 62 57 56 52 49 55 53 58 58 60 60 56 57 54 60 51 47 46 45 42 40 35 36 37
14 9 15 17 18 13 17 13 15 20 17 10 12 27 41 49 55 60 64 67 70 74 75 70 68 68 70 63 58 55 55 62 62 60 61 65 67 66 66 62 55 51 47 45 40 36 36 38 39
14 25 19 13 15 20 16 10 7 11 8 7 20 33 41 49 57 64 70 79 80 79 78 78 77 71 67 70 66 60 59 61 66 66 64 49 72 74 72 67 60 55 51 45 40 36 34 35 40
24 12 9 10 3 5 14 5 7 12 5 13 25 32 40 49 57 64 72 78 83 87 84 81 81 79 77 72 68 66 61 60 67 71 70 70 59 77 78 76 69 61 56 49 46 41 40 38 40
10 9 7 6 2 2 8 6 4 5 2 17 27 34 43 51 59 66 73 81 87 86 87 84 78 76 73 66 62 64 61 59 61 70 75 68 63 69 79 79 77 66 62 58 53 49 45 42 41
11 6 5 2 3 1 4 2 4 6 8 19 28 37 47 56 64 69 75 82 86 86 83 78 70 69 67 64 58 53 58 56 58 62 71 75 70 60 84 82 78 73 67 67 60 55 52 48 43
11 8 3 6 4 3 3 4 6 7 12 18 28 39 49 59 68 70 77 83 85 84 80 74 70 69 69 63 57 56 54 59 50 55 62 71 70 58 71 80 80 76 78 75 72 64 57 52 46
14 10 8 2 2 1 6 5 12 8 10 18 31 41 50 59 62 66 76 85 89 84 78 76 71 73 69 65 62 58 49 48 43 43 47 59 69 54 60 86 78 78 86 89 76 66 59 58 52
10 9 3 3 5 2 4 10 9 12 3 14 25 35 46 59 66 70 77 86 86 82 76 74 68 70 72 67 58 54 45 41 38 36 32 41 57 55 52 55 79 82 80 88 83 73 59 62 59
6 10 7 3 4 4 7 9 9 6 7 8 20 29 41 49 60 69 71 81 84 83 79 74 65 64 67 58 50 36 29 30 29 12 5 14 33 44 48 60 58 85 65 68 71 70 65 63 71
7 5 10 8 6 5 5 9 10 10 9 0 18 31 43 51 55 61 63 73 79 78 74 68 62 56 53 52 43 36 25 16 23 16 10 4 16 26 34 43 46 35 46 88 65 65 76 62 76
6 4 8 6 8 6 0 5 7 4 9 5 12 26 35 41 45 53 57 58 73 73 78 72 62 58 60 54 48 43 41 50 34 19 15 12 5 6 18 22 34 10 15 47 58 47 63 64 63
16 9 10 8 5 3 5 9 8 9 11 7 5 20 29 38 42 49 49 50 65 78 78 85 79 83 77 67 65 62 60 44 38 34 25 17 20 11 2 18 9 9 9 17 25 17 8 22 50
5 8 4 9 5 9 8 4 12 11 9 9 9 11 21 31 40 43 47 51 61 68 84 93 93 91 96 99 93 94 96 91 89 77 67 61 50 39 32 21 20 4 14 13 21 12 5 6 11
9 4 8 13 6 5 4 11 7 8 18 15 11 10 17 26 35 35 43 49 47 57 67 75 81 89 96 95 94 93 89 90 90 87 85 88 86 81 70 62 53 49 36 25 15 19 19 15 13
9 8 4 12 5 6 6 9 4 8 8 14 12 10 14 22 30 34 40 52 51 57 68 77 86 91 94 92 87 85 83 81 81 78 81 84 79 77 72 70 71 61 53 50 48 39 36 33 38
5 7 6 4 4 8 8 10 9 21 20 14 16 18 17 19 23 30 34 41 45 50 55 60 64 68 72 74 74 77 77 77 77 77 75 70 65 58 59 65 66 52 44 46 46 41 37 34 37
6 5 4 3 7 8 3 10 5 27 26 26 33 29 25 23 24 26 28 32 35 39 46 52 56 60 65 69 66 65 66 65 63 64 62 57 52 50 44 39 34 33 35 38 36 35 33 31 29
5 12 12 7 10 6 3 11 8 15 33 45 44 37 31 26 25 23 23 24 23 28 35 42 45 50 56 59 61 60 60 59 57 57 54 51 49 46 44 40 37 36 34 31 31 28 24 19 20
Wind_Direction_850mb
163 99 108 78 56 65 55 40 299 353 49 77 70 65 89 62 17 27 339 339 345 343 216 258 283 276 273 285 263 242 232 229 232 209 204 208 209 210 193 163 346 30 26 63 146 161 160 159 176
127 119 90 80 82 68 357 321 356 325 328 91 56 54 50 58 14 344 350 348 349 353 309 299 273 281 276 277 275 252 232 233 239 233 216 215 216 208 203 176 168 342 11 8 162 159 159 165 174
117 108 60 74 62 76 105 1 320 3 40 5 71 54 48 347 3 350 347 341 347 347 16 271 334 280 266 265 266 259 251 244 243 242 238 232 231 228 213 192 179 297 327 326 303 183 168 166 171
122 71 66 68 76 11 51 333 354 358 35 30 41 65 95 26 10 354 346 343 342 348 350 294 273 274 261 273 263 265 260 257 253 249 244 249 239 225 204 197 197 270 305 309 280 200 185 178 180
93 78 66 88 61 117 33 49 35 38 36 11 50 84 86 10 1 356 352 345 345 345 332 308 290 264 251 262 268 264 268 271 266 253 246 245 252 213 204 207 211 273 298 292 257 225 193 187 188
75 89 69 93 105 79 329 33 45 63 39 34 51 92 91 358 360 1 353 348 341 337 331 318 314 288 259 251 261 263 262 272 276 265 245 230 228 212 213 216 222 298 294 297 259 227 199 195 196
102 71 139 140 157 168 226 108 68 51 33 30 40 59 305 355 356 350 348 351 349 339 325 314 312 296 293 282 250 252 263 268 273 267 254 234 224 223 219 218 223 281 311 310 270 235 207 201 201
93 92 100 134 182 173 215 109 86 69 39 70 46 27 341 348 344 343 342 345 350 352 345 329 310 304 288 282 275 257 249 257 266 266 255 242 232 224 222 224 235 251 283 299 288 251 210 211 212
68 68 134 170 151 159 172 116 82 82 87 75 83 58 0 342 341 346 350 349 345 344 344 338 329 314 295 287 272 276 264 251 251 255 256 248 235 230 228 227 239 239 265 283 288 260 226 225 224
60 84 162 166 151 140 129 131 136 103 87 66 63 26 354 350 354 356 355 350 346 340 336 334 328 318 308 289 279 270 268 264 244 245 249 252 243 231 231 237 240 233 242 256 270 269 244 232 230
42 125 163 113 118 103 97 98 111 122 57 73 36 4 356 357 358 355 352 348 343 339 334 330 326 321 309 298 286 273 264 260 254 252 242 246 244 231 228 237 238 236 239 249 260 262 257 246 239
94 90 96 140 160 118 123 105 83 89 113 94 53 8 358 359 360 357 350 346 341 337 333 330 326 325 313 301 288 279 268 256 249 251 242 239 241 232 225 233 243 243 247 253 256 256 252 248 244
78 129 97 132 148 132 127 103 119 106 118 93 32 8 4 359 355 351 347 343 338 335 333 327 322 318 317 306 291 279 268 261 255 246 244 237 236 236 233 237 239 244 244 246 247 245 249 249 244
109 108 111 109 111 128 120 137 121 151 128 67 15 11 5 359 356 350 349 345 343 337 332 329 324 319 315 309 299 282 271 264 255 253 237 248 235 235 237 238 241 241 242 239 236 243 252 252 246
104 76 47 33 74 120 138 88 90 144 133 30 18 8 1 1 359 356 352 348 344 340 335 331 324 320 315 304 299 289 275 266 259 250 246 233 241 235 234 238 241 241 239 237 236 242 247 245 242
69 59 99 301 40 72 134 240 120 123 165 30 13 5 358 1 0 357 356 351 347 341 339 336 333 331 324 313 297 291 288 273 262 256 245 242 233 238 236 234 238 241 239 238 238 242 247 247 245
16 165 138 247 9 299 131 215 124 88 65 32 11 3 1 359 359 359 358 353 346 348 347 345 345 340 336 330 319 300 295 287 271 259 250 238 231 243 238 234 236 238 237 235 238 241 245 246 246
189 158 146 171 203 146 194 174 144 99 55 29 11 5 3 2 3 3 1 353 351 354 352 351 346 341 334 327 318 305 298 299 280 266 252 243 236 230 250 236 236 237 239 237 235 236 241 246 247
123 114 124 80 25 33 235 221 197 158 48 23 15 7 4 3 4 6 2 357 358 2 355 354 348 343 340 337 330 322 300 304 302 276 254 245 236 238 242 236 238 239 239 239 233 233 240 241 244
94 108 108 43 35 74 338 268 181 185 101 33 12 8 7 3 4 8 6 5 4 359 357 354 352 351 343 340 334 323 311 302 305 292 255 251 235 235 249 257 248 245 246 243 235 228 236 242 241
49 130 164 138 343 68 351 279 177 196 155 38 21 16 16 14 11 11 7 10 8 5 3 1 355 356 346 352 346 343 338 326 328 344 12 268 246 244 259 263 266 253 254 244 244 239 231 240 245
146 141 120 109 82 217 48 278 219 207 213 172 10 21 18 12 17 14 7 18 18 12 13 11 12 12 12 11 9 15 5 21 26 33 110 273 255 247 258 274 272 262 269 256 255 255 250 239 248
159 137 109 105 96 55 62 81 261 119 226 235 359 23 23 19 20 19 11 21 32 27 30 30 30 26 35 44 47 57 65 75 69 72 74 84 149 249 278 288 248 327 295 232 233 245 237 248 253
144 82 51 56 91 15 182 136 265 186 192 161 39 33 26 24 25 27 21 29 38 43 46 47 52 50 50 50 53 58 57 63 67 72 78 66 61 100 15 102 178 119 116 47 77 48 326 279 250
87 105 339 348 14 224 152 88 254 181 168 143 126 63 43 35 34 37 33 34 42 45 50 49 58 57 60 63 66 67 71 70 72 69 71 72 69 74 91 88 87 68 318 303 31 36 38 306 270
179 176 167 211 205 269 150 235 270 159 143 138 120 94 68 54 48 52 42 41 38 44 52 57 56 53 55 60 61 65 64 68 69 70 71 69 69 65 63 67 70 74 77 75 51 9 18 31 42
182 196 137 105 39 46 225 277 170 139 154 170 161 137 101 76 64 64 58 54 54 58 61 62 62 61 59 56 54 56 56 57 62 64 66 70 66 62 58 54 55 52 50 56 60 60 58 52 53
151 155 84 7 159 257 264 268 230 196 199 194 192 178 147 107 91 80 70 66 64 63 61 57 54 54 55 54 54 57 61 63 63 61 59 56 56 54 59 61 61 47 46 52 57 56 56 56 59
147 193 179 153 177 178 250 256 205 193 183 185 193 181 162 136 112 98 83 75 69 68 63 60 55 53 52 52 53 52 52 52 52 53 53 54 58 61 64 67 71 68 57 56 50 48 49 46 53
190 191 170 147 210 228 153 270 333 176 172 180 183 178 169 155 143 127 106 91 78 68 65 57 51 49 48 45 45 47 46 47 44 45 47 47 48 50 50 52 52 52 53 50 53 55 56 51 59